{"data":{"norad_id":62829,"intl_designator":"2025-019A","name":"STARLINK-11548 [DTC]","alt_names":[],"object_type":"PAYLOAD","status":"ACTIVE","operator":null,"country":"US","launch_date":"2025-01-27","launch_site_code":"AFETR","launch_vehicle":null,"mission":null,"orbit_class":"UNKNOWN","rcs_meters":null,"size_class":null,"mass_kg":null,"dimensions":null,"purposes":["comms"],"wikipedia_slug":null,"has_3d_model":false,"image_url":null,"decayed_at":null,"tle_current":{"epoch":"2026-09-21T03:24:35.769024Z","epoch_age_seconds":113108,"freshness":"FRESH","line1":"1 62829U 25019A   26264.14208066  .00159604  00000+0  12216-2 0  9999","line2":"2 62829  42.9991 207.5651 0001120 237.6658 122.4101 15.70878708 94623","mean_motion":15.70878708,"eccentricity":0.000112,"inclination_deg":42.9991,"raan_deg":207.5651,"arg_perigee_deg":237.6658,"mean_anomaly_deg":122.4101,"bstar":0.0012216,"rev_number":9462,"period_min":91.668439623411,"perigee_km":355.63016273197,"apogee_km":357.1386955321,"semimajor_km":6734.521429132,"source":"CELESTRAK","updated_at":"2026-09-22T09:00:49.670872Z"}}}